MMS 4 (40485 NORAD) Tracking and Keplerian Element Data

This shows tracking and keplerian element data for the satellite.

Feedback or suggestion? Click here.




ElementValue
Catalog40485
NameMMS 4
Epoch Orbit130
Epoch Day354.25003472
Epoch Year2025
RAAN351.4287
Inclination69.3562
Eccentricity0.8501311
Argument of Perigee163.4388
Mean Anonmoly47.5586
Mean Motion0.28374935
Decay Rate-6.12E-06
L11 40485U 15011D 25354.25003472 -.00000612 00000+0 00000+0 0 9999
L22 40485 69.3562 351.4287 8501311 163.4388 47.5586 0.28374935 1306



Live tracking and technical data element details for MMS 4 (NORAD 40485). MMS 4 can be tracked NOW for your location showing map with azimuth and elevation plus other details from your city location.







IsCatalogInMostPopularTable: catalog: 40485, numindb: 662
Update: records affected: 1



GetName: 40485 MMS 4

Hit Count: updated at: Mon, 18 May 2026 09:19:36 GMT